Portada
METAR-TAF:

METAR-TAF

Aeroports :

Lonesome Pine Airport

Wise, Virgínia, Estats Units d'Amèrica

latitud: 36-59N, longitud: 082-32W, altitud: 817 m

Observació

L'informe es va fer fa 17 minuts, a les 21:15 UTC
Vent 5 kt del Oest
Temperatura 6°C
Humitat 45%
Pressió 1024 hPa
Visibilitat: 16.1 km
Cel clar

METAR: KLNP 142115Z AUTO 26005KT 10SM CLR 06/M05 A3023 RMK AO2

Hora: 16:32 (21:32 UTC)


TAF: manca

Observacions i pronòstics meteorològics de més de 4000 aeroports (METAR i TAF).

Les estacions disponibles són els punts grocs i vermells al mapa.

Posi el ratolí al punt desitjat per veure el nom de l'estació.

Feu clic per veure les observacions i els pronòstics meteorològics.

Per canviar el mapa: feu clic els botons verds amb una creu de color negre per apropar; al botó verd amb un guió per allunyar la imatge; o en les fletxes verdes per a mapes adjacents.


METAR-TAF: